{"data":{"norad_id":64623,"intl_designator":"2025-138C","name":"HAWK-12A","alt_names":[],"object_type":"PAYLOAD","status":"ACTIVE","operator":null,"country":"US","launch_date":"2025-06-26","launch_site_code":"RLLB","launch_vehicle":null,"mission":null,"orbit_class":"UNKNOWN","rcs_meters":null,"size_class":null,"mass_kg":null,"dimensions":null,"purposes":[],"wikipedia_slug":null,"has_3d_model":false,"image_url":null,"decayed_at":null,"tle_current":{"epoch":"2026-09-21T18:38:03.482880Z","epoch_age_seconds":67954,"freshness":"FRESH","line1":"1 64623U 25138C   26264.77642920  .00002228  00000+0  11010-3 0  9996","line2":"2 64623  97.4463 266.0469 0014445 154.6046 205.5902 15.18811176 68526","mean_motion":15.18811176,"eccentricity":0.0014445,"inclination_deg":97.4463,"raan_deg":266.0469,"arg_perigee_deg":154.6046,"mean_anomaly_deg":205.5902,"bstar":0.0001101,"rev_number":6852,"period_min":94.810995781085,"perigee_km":499.483263434,"apogee_km":519.38145130744,"semimajor_km":6887.5693573707,"source":"CELESTRAK","updated_at":"2026-09-22T09:00:29.888828Z"}}}